TIME,DELAY(SENSOR),PRES,T(CTD),SAL,OXYGEN,RAWTEMP,T(OPTODE),TCPHASE,FLUOR,BETA(BETA700),BETA(BETA412),BETA(BETA440),CDOM,C(CSC),ED(ED411.90),ED(ED443.80),ED(ED489.40),ED(ED554.70),LU(LU412.20),LU(LU443.80),LU(LU489.40),LU(LU555.00),COMP,TILTX,TILTX(TILTY),CHECK
1349363536,5804,496.6300048828125000,17.0970001220703120,36.3865013122558600,225.3657989501953000,185.1988067626953000,17.0945491790771500,31.6175994873046880,51,99,90,63,53,13170,2146956571,2147515081,2147267666,2147469385,2147087643,2146952777,2147657289,2147124982,1550,-1,8,46775
1349363663,5807,485.2200012207031000,17.2425994873046880,36.4143981933593750,227.8686065673828000,180.5014953613281200,17.2362098693847660,31.4264507293701170,50,101,89,64,52,13171,2146959058,2147512905,2147269467,2147470098,2147085668,2146958729,2147661092,2147119826,1018,-2,8,29450
1349363792,5806,473.9599914550781000,17.3731994628906250,36.4398994445800800,230.3300018310547000,176.0428924560547000,17.3706893920898440,31.2425098419189450,50,101,89,64,52,13170,2146959003,2147514139,2147268745,2147466331,2147084708,2146951396,2147657691,2147124022,3307,-1,8,8520
1349363919,5803,462.9200134277344000,17.4817008972167970,36.4608001708984400,231.0287017822265600,172.3648071289062500,17.4816608428955080,31.1581001281738280,50,101,90,63,52,13167,2146957970,2147514166,2147269714,2147467190,2147086875,2146958665,2147655414,2147117942,2840,-1,8,47694
1349364046,5803,451.9500122070312500,17.5664997100830080,36.4735984802246100,230.3076934814453000,169.7709045410156200,17.5599193572998050,31.1586208343505860,50,100,89,63,53,13169,2146953737,2147513618,2147268022,2147465344,2147084781,2146955876,2147651675,2147126189,2038,-2,8,58672
1349364175,5807,440.7999877929687500,17.6219997406005860,36.4842987060546900,231.3484039306640600,167.8571929931640600,17.6176700592041000,31.0814990997314450,51,99,91,64,52,13169,2146960612,2147517906,2147267282,2147463707,2147087341,2146961417,2147652105,2147128420,1476,-1,9,19076
1349364302,5807,429.7799987792969000,17.7429008483886720,36.5093002319335940,233.7158966064453000,163.5655975341797000,17.7472000122070300,30.9074707031250000,50,102,89,64,52,13169,2146958363,2147516489,2147268882,2147461952,2147085906,2146961161,2147653001,2147124342,703,-1,8,6778
1349364431,5807,418.5899963378906000,17.8099994659423830,36.5217018127441400,235.0910034179687500,161.5424041748047000,17.8082695007324220,30.8137702941894530,50,100,90,64,52,13170,2146956306,2147516260,2147270034,2147466148,2147083209,2146957403,2147652745,2147121600,113,-1,8,30337
1349364558,5805,407.4299926757812500,17.8568992614746100,36.5285987854003900,235.4911956787109400,160.0693969726562500,17.8527393341064450,30.7746505737304700,50,101,89,64,53,13167,2146958043,2147516480,2147265920,2147462637,2147083949,2146961773,2147654610,2147128036,3130,-1,8,60449
1349364685,5804,396.1199951171875000,17.8920001983642580,36.5346984863281250,235.9505004882812500,158.9414978027343800,17.8867893218994140,30.7374992370605470,50,99,89,64,52,13168,2146955428,2147514980,2147267593,2147464576,2147083401,2146957760,2147652169,2147125577,3440,-2,8,45987
1349364802,5801,385.6700134277344000,17.9521999359130860,36.5438995361328100,236.0285034179687500,156.9517974853515600,17.9468708038330080,30.7072105407714840,50,103,89,63,52,13166,2146959158,2147511533,2147267913,2147462701,2147084114,2146954724,2147655113,2147125467,2894,-1,9,53960
1349364929,5805,374.5299987792969000,17.9934005737304700,36.5507011413574200,236.0964050292968800,155.5561065673828000,17.9890193939209000,30.6852397918701170,50,100,90,62,52,13168,2146960420,2147511606,2147266971,2147463542,2147082459,2146958994,2147649755,2147127506,2143,-2,9,40022
1349365058,5805,363.5499877929687500,18.0601997375488280,36.5588989257812500,235.6497955322265600,153.2489929199218800,18.0587005615234380,30.6758594512939450,51,101,91,64,51,13165,2146956662,2147514176,2147268004,2147464566,2147074614,2146957650,2147649097,2147122697,1403,-2,9,41576
1349365197,5802,352.0499877929687500,18.1126003265380860,36.5639991760253900,234.9244995117187500,151.6753997802734400,18.1062297821044920,30.6898708343505860,50,102,89,63,52,13166,2146956388,2147511753,2147262656,2147464630,2147083492,2146959433,2147655881,2147126875,1004,-1,9,33302
1349365324,5804,341.9700012207031000,18.1632003784179700,36.5719985961914060,234.6060943603515600,149.8545989990234400,18.1612300872802730,30.6806907653808600,50,101,89,64,51,13166,2146956918,2147516882,2147266669,2147462189,2147078875,2146962432,2147653001,2147122998,384,-1,8,11484
1349365477,5806,330.4400024414062500,18.2143993377685550,36.5761985778808600,233.9506988525390600,148.2606964111328000,18.2093906402587900,30.6913604736328120,51,102,88,64,52,13162,2146958939,2147515529,2147266185,2147461220,2147081600,2146957330,2147657444,2147126930,3318,-1,9,18069
1349365628,5802,319.3999938964844000,18.2716999053955080,36.5838012695312500,233.4600067138672000,146.0861968994140600,18.2750892639160160,30.6859798431396500,50,102,89,65,52,13165,2146953883,2147511634,2147266084,2147459602,2147082797,2146956781,2147660096,2147125814,2848,-2,9,45173
1349365764,5804,307.9299926757812500,18.3589000701904300,36.5900993347168000,232.0677947998047000,143.3502960205078000,18.3577709197998050,30.7168598175048830,51,104,91,64,52,13164,2146959350,2147515428,2147268580,2147460937,2147079725,2146964224,2147660827,2147126500,2242,-1,9,17418
1349365879,5806,296.9299926757812500,18.4169006347656250,36.5943984985351560,231.0050964355468800,141.3917999267578000,18.4169692993164060,30.7427005767822270,50,101,89,63,51,13164,2146956726,2147516608,2147268132,2147459355,2147075894,2146963565,2147659190,2147124315,1529,-1,8,65366
1349365996,5806,285.6000061035156000,18.5083999633789060,36.6006011962890600,229.4918975830078000,138.4732055664062500,18.5051994323730470,30.7784996032714840,51,101,89,65,53,13163,2146956854,2147515730,2147266934,2147460342,2147072402,2146963181,2147661403,2147124790,1714,-1,8,2697
1349366099,5804,275.2799987792969000,18.5765991210937500,36.6021003723144500,228.2122039794922000,136.2530059814453000,18.5723400115966800,30.8122291564941400,50,103,89,63,52,13164,2146957165,2147516187,2147267611,2147459474,2147079478,2146964534,2147672356,2147126464,1323,-1,8,16282
1349366214,5806,263.3200073242187500,18.6686000823974600,36.6063003540039060,226.7200012207031200,133.2332000732422000,18.6636695861816400,30.8462295532226560,51,99,89,64,52,13164,2146956388,2147513536,2147267474,2147459702,2147085449,2146965906,2147680137,2147124827,1010,-2,8,8407
1349366338,5805,250.8800048828125000,18.8118000030517580,36.6072006225585940,227.1004028320312500,128.0567016601562500,18.8202705383300780,30.7583694458007800,51,101,89,62,52,13164,2146957522,2147515748,2147266441,2147461540,2147075913,2146974930,2147681481,2147127524,908,-1,9,38604
1349366459,5804,240.8699951171875000,18.9451999664306640,36.6198005676269500,226.9736022949218800,124.0948028564453100,18.9401798248291000,30.7117500305175780,51,102,89,63,52,13166,2146956992,2147514304,2147268114,2147460105,2147072064,2146990710,2147712237,2147129417,992,-2,9,60485
1349366612,5806,229.3399963378906200,19.0555992126464840,36.6073989868164060,230.0881958007812500,120.3025970458984400,19.0549907684326170,30.5076999664306640,51,103,89,63,52,13162,2146958052,2147513563,2147266532,2147456896,2147082432,2146997805,2147731254,2147131264,763,-1,9,47120
1349366751,5806,219.1300048828125000,19.1257991790771500,36.6002006530761700,232.5980987548828000,118.1568984985351600,19.1199798583984380,30.3574295043945300,51,99,89,64,52,13164,2146959469,2147517156,2147266578,2147455716,2147088274,2147013046,2147762322,2147130185,454,-1,8,10892
1349366947,5807,204.8999938964843800,19.2061004638671880,36.5750007629394500,243.7957000732422000,115.3490982055664000,19.2050209045410160,29.7949409484863280,51,102,90,63,51,13163,2146956708,2147512740,2147267017,2147459748,2147089353,2147029202,2147797284,2147131840,168,-1,9,35737
1349367034,5806,197.2599945068359400,19.2511997222900400,36.5736999511718750,246.3585052490234400,114.0141983032226600,19.2454700469970700,29.6612491607666000,50,101,89,63,52,13163,2146956992,2147517028,2147271990,2147457389,2147088941,2147069330,2147869092,2147137929,3071,-2,9,22312
1349367089,5804,192.2500000000000000,19.2751007080078120,36.5704002380371100,247.8040924072265600,113.2138977050781200,19.2697200775146500,29.5859794616699220,52,102,89,64,50,13160,2146957421,2147516589,2147267986,2147453979,2147080722,2147019172,2147752932,2147130550,2839,-1,9,40825
1349367144,5807,187.3899993896484400,19.3183002471923830,36.5754013061523440,248.0084991455078000,111.8029022216796900,19.3124809265136720,29.5585403442382800,52,103,90,64,51,13161,2146958125,2147517750,2147267501,2147455213,2147086592,2147038326,2147779364,2147134409,2708,-2,8,58502
1349367199,5804,182.6499938964843800,19.3446006774902340,36.5789985656738300,247.9172973632812500,110.8509979248046900,19.3413200378417970,29.5504493713378900,54,103,88,64,51,13159,2146956114,2147518034,2147262528,2147458486,2147089718,2147019053,2147734034,2147127762,2554,-1,9,9977
1349367274,5805,176.7100067138672000,19.3801994323730470,36.5777015686035160,247.7852935791015600,109.8253021240234400,19.3724098205566400,29.5430107116699220,57,106,90,63,52,13156,2146956251,2147520301,2147270418,2147457243,2147102070,2147105344,2147907922,2147140882,2175,-2,9,52661
1349367329,5804,172.8300018310547000,19.3950996398925780,36.5788002014160160,247.6950988769531200,109.2381973266601600,19.3902091979980470,29.5394096374511720,56,107,89,62,50,13155,2146959332,2147521792,2147278683,2147457417,2147104137,2147192822,2148075840,2147152192,1952,-2,9,51125
1349367384,5806,169.0000000000000000,19.4090003967285160,36.5797996520996100,247.5343017578125000,108.7257995605468800,19.4057407379150400,29.5399208068847660,58,109,90,64,50,13154,2146952667,2147520365,2147277952,2147454866,2147113782,2147209764,2148104685,2147155126,1958,-1,9,18466
1349367439,5806,165.1900024414062500,19.4655990600585940,36.5840988159179700,247.2601928710937500,107.0176010131836000,19.4575290679931640,29.5301494598388670,60,107,89,65,51,13152,2146957805,2147520521,2147270838,2147455433,2147099273,2147114176,2147912411,2147141229,1845,-1,9,45957
1349367506,5808,160.5899963378906200,19.4733009338378900,36.5862998962402340,247.2559051513672000,106.3906021118164000,19.4765396118164060,29.5223197937011720,59,108,90,64,51,13149,2146957842,2147521673,2147280758,2147454683,2147117933,2147217764,2148083675,2147153636,1810,-1,9,15304
1349367585,5805,155.5299987792968800,19.5238990783691400,36.5890007019043000,246.8273925781250000,104.8587036132812500,19.5229892730712900,29.5216808319091800,67,108,89,65,51,13150,2146958290,2147530267,2147285933,2147456237,2147144457,2147337581,2148308004,2147167140,2126,-2,9,16470
1349367664,5806,151.3000030517578000,19.5939998626709000,36.5974006652832000,246.3769073486328000,102.6755981445312500,19.5892105102539060,29.5136909484863280,68,112,89,65,52,13143,2146960585,2147522614,2147276416,2147454043,2147122852,2147227428,2148095158,2147152777,2209,-2,9,27364
1349367743,5804,147.1799926757812500,19.6753997802734380,36.6010017395019500,246.5769042968750000,99.3043899536132800,19.6914806365966800,29.4610404968261720,74,112,90,65,52,13138,2146960502,2147533568,2147294619,2147454592,2147169179,2147453659,2148496082,2147178852,1953,-2,9,11020
1349367822,5804,143.1600036621093800,19.7737998962402340,36.6116981506347660,247.0180969238281200,96.5727767944336000,19.7743797302246100,29.4061107635498050,80,117,91,67,52,13130,2146962395,2147531739,2147301915,2147457444,2147190372,2147532022,2148637650,2147187483,1666,-2,9,27741
1349367891,5804,139.6799926757812500,19.8696994781494140,36.6184005737304700,246.5812988281250000,93.6434936523437500,19.8633098602294920,29.3881092071533200,88,115,90,64,52,13126,2146959067,2147525174,2147281124,2147454784,2147149888,2147291245,2148182738,2147160603,1674,-1,9,55268
1349367970,5809,135.7400054931640600,19.9379005432128900,36.6206016540527340,247.1250000000000000,91.2998733520507800,19.9344806671142580,29.3336296081542970,92,116,91,64,51,13116,2146961252,2147536000,2147311296,2147454939,2147239268,2147701321,2148881069,2147205622,1880,-1,9,32805
1349368061,5805,131.1900024414062500,19.9902992248535160,36.6254997253418000,247.8298034667968800,89.4227066040039000,19.9915008544921880,29.2782192230224600,97,119,91,64,52,13115,2146964818,2147542537,2147317257,2147452150,2147288795,2147849673,2149080960,2147220068,2205,-2,9,41223
1349368140,5806,127.2799987792968800,20.1219005584716800,36.6333007812500000,248.1584930419922000,85.2235565185546900,20.1190891265869140,29.2099399566650400,105,122,92,63,53,13109,2146966674,2147550893,2147327268,2147452982,2147341220,2147979300,2149264758,2147237595,2168,-2,9,33781
1349368221,5805,123.2600021362304700,20.1998996734619140,36.6371994018554700,249.3014068603515600,82.7200164794921900,20.1951904296875000,29.1271400451660160,109,124,92,66,52,13100,2146970057,2147558134,2147338157,2147454308,2147407616,2148157366,2149489709,2147253366,2746,-1,9,5986
1349368300,5803,119.3199996948242200,20.2819995880126950,36.6423988342285160,249.6049041748047000,80.2509078979492200,20.2702693939209000,29.0824794769287100,116,128,93,65,52,13089,2146973238,2147566939,2147355236,2147456448,2147511798,2148439542,2149887488,2147285924,2788,-2,9,17777
1349368379,5805,115.4800033569336000,20.3633003234863280,36.6487998962402340,249.8867034912109400,77.4661865234375000,20.3549709320068360,29.0347404479980470,122,123,92,64,51,13088,2146977334,2147579821,2147380763,2147456402,2147631296,2148729142,2150299721,2147321508,3296,-2,9,62334
1349368470,5803,111.5100021362304700,20.4260005950927730,36.6515007019043000,251.2319030761718800,75.3913497924804700,20.4180908203125000,28.9494895935058600,120,124,92,66,51,13081,2146984832,2147592722,2147415524,2147457042,2147773568,2149055817,2150721481,2147358537,118,-1,9,7737
1349368575,5808,107.8700027465820300,20.4853000640869140,36.6469993591308600,252.0355072021484400,73.1834487915039000,20.4852905273437500,28.8865108489990230,129,126,93,65,52,13071,2146992758,2147611968,2147449234,2147455414,2147983232,2149532845,2151339629,2147412790,765,-2,9,10225
1349368738,5804,104.5100021362304700,20.7660999298095700,36.6688995361328100,253.8946075439453000,64.5755691528320300,20.7474403381347660,28.6973991394042970,142,128,92,65,52,13057,2147005641,2147627382,2147462866,2147460004,2148265627,2150088073,2151961947,2147472219,3244,-1,9,23183
1349368909,5805,99.3899993896484400,20.9519004821777340,36.6703987121582000,254.8928985595703000,58.1240615844726560,20.9441204071044920,28.5732994079589840,145,126,92,66,52,13042,2147030985,2147673243,2147506779,2147460809,2148893979,2151289097,2153349586,2147607616,2231,-2,9,10415
1349368964,5807,96.9599990844726600,21.0939006805419920,36.6753997802734400,256.0412902832031000,53.9451713562011700,21.0716209411621100,28.4721794128417970,142,126,93,66,52,13045,2147045814,2147696850,2147539529,2147461540,2149263442,2151955373,2154053376,2147681289,2508,-1,9,43440
1349369019,5803,94.6600036621093800,21.1928005218505860,36.6801986694335940,256.5484924316406000,50.1189498901367200,21.1884193420410160,28.4027805328369140,142,125,92,65,51,13038,2147063789,2147731318,2147591213,2147463771,2149674962,2152678473,2154807058,2147759213,3024,-2,9,48719
1349369074,5806,92.6900024414062500,21.3687000274658200,36.6957015991210940,257.6849060058594000,45.1749191284179700,21.3394393920898440,28.2929496765136720,133,121,94,65,51,13057,2147080045,2147750400,2147621760,2147466477,2150020406,2153235062,2155335222,2147819227,3186,-1,9,3404
1349369153,5803,89.7600021362304700,21.4113998413085940,36.6809005737304700,260.0819091796875000,42.9146881103515600,21.4085197448730470,28.1649093627929700,102,121,94,65,52,13052,2147120813,2147817462,2147704932,2147466642,2150862921,2154652224,2156711844,2147958637,3349,-1,9,47237
1349369208,5806,86.9499969482421900,21.4785995483398440,36.6799011230468750,260.8280944824219000,40.8562698364257800,21.4714508056640620,28.1085090637207030,99,123,93,65,53,13054,2147164626,2147889883,2147827172,2147478966,2151725321,2156095862,2158069229,2148102061,231,-2,9,62238
1349369263,5806,83.9599990844726600,21.5436992645263670,36.6632003784179700,263.0686035156250000,38.4384002685546900,21.5454006195068360,27.9864692687988280,97,122,93,65,51,13053,2147218596,2147978230,2147954944,2147484790,2152889654,2158049627,2159981787,2148306569,374,-2,8,43391
1349369318,5804,81.1600036621093800,21.6383991241455080,36.6581001281738300,265.5343933105469000,35.4239387512207000,21.6376304626464840,27.8489208221435550,98,121,93,64,50,13053,2147254637,2148006491,2147887424,2147479085,2153893504,2159644013,2161366820,2148447542,2854,-1,9,6609
1349369373,5807,78.8099975585937500,21.7563991546630860,36.6515007019043000,266.7468872070312500,31.4741992950439450,21.7585391998291000,27.7514991760253900,92,123,93,66,50,13050,2147301604,2148080950,2147963492,2147485696,2155080109,2161523346,2163066953,2148629604,2784,-2,9,57661
1349369428,5805,76.9800033569336000,21.9591999053955080,36.6585998535156250,266.8146057128906000,25.9657497406005860,21.9273109436035160,27.6809501647949220,91,122,92,67,51,13043,2147353206,2148146880,2148027419,2147489645,2156073435,2163009691,2164382857,2148766802,2892,-2,9,56814
1349369497,5806,75.5100021362304700,22.0678997039794920,36.6610984802246100,267.1336975097656000,22.2334594726562500,22.0417404174804700,27.6223392486572270,87,122,92,65,51,13046,2147414619,2148235492,2148136329,2147495753,2157483309,2165133952,2166216256,2148960758,3105,-2,9,1342
1349369636,5807,73.5899963378906200,22.1212005615234380,36.6629981994628900,268.5267944335937500,19.9295597076416000,22.1124095916748050,27.5385608673095700,84,120,94,66,50,13046,2147317394,2148056100,2147865252,2147476854,2155144009,2160218395,2160410944,2148399332,2651,-2,9,28108
1349369810,5802,70.8600006103515600,22.2075004577636720,36.6641006469726560,268.8009948730469000,16.7283496856689450,22.2106609344482420,27.4883995056152340,83,125,94,65,50,13039,2147558180,2148397952,2148228470,2147495954,2160967808,2169777060,2169865398,2149366354,2272,-2,9,11217
1349369865,5805,68.8499984741211000,22.4398002624511720,36.6439018249511700,268.3411865234375000,8.8717460632324220,22.4520092010498050,27.4104995727539060,83,123,94,65,50,13034,2147721654,2148603913,2148425691,2147510692,2164603053,2175004864,2174208978,2149846774,2491,-2,9,64149
1349369920,5807,67.2200012207031200,22.6937999725341800,36.6607017517089840,269.1854858398437500,1.9297779798507690,22.6655502319335940,27.2924308776855470,78,122,93,66,51,13047,2147794102,2148686592,2148484525,2147510491,2166128868,2176751378,2175269613,2149959396,2490,-2,9,39381
1349370035,5805,65.6699981689453100,23.0646991729736330,36.7102012634277340,269.9867858886719000,-7.9440331459045410,22.9697494506835940,27.1410198211669920,80,130,94,65,50,13046,2147902080,2148837714,2148660324,2147523355,2168399515,2179417901,2177404937,2150225115,1484,-2,9,54991
1349370162,5805,63.2799987792968750,23.2500000000000000,36.7284011840820300,276.1086120605469000,-16.7322807312011720,23.2409896850585940,26.7983207702636720,73,122,92,65,50,13049,2148123163,2149061229,2148777929,2147528978,2173231826,2185229650,2181219008,2150643913,2117,-2,9,2606
1349370241,5805,61.4799995422363300,23.4850997924804700,36.7229995727539060,277.4985961914062500,-23.7468299865722660,23.4578304290771500,26.6612396240234380,71,121,95,66,52,13052,2148196059,2149111625,2148780480,2147525321,2174405056,2185755382,2180650276,2150561042,2178,-2,9,58585
1349370415,5805,59.4199981689453100,23.5662994384765620,36.6735992431640600,276.1241149902344000,-27.1776905059814450,23.5639991760253900,26.6720600128173830,70,121,92,66,51,13044,2148574336,2149553426,2149226514,2147562422,2183390646,2196995538,2189500032,2151541321,1426,-2,9,18290
1349370518,5804,57.5000000000000000,23.8008003234863280,36.6292991638183600,272.9436950683594000,-34.5595703125000000,23.7926902770996100,26.7048492431640620,70,120,93,67,50,13052,2148836068,2149844214,2149544685,2147603547,2189053046,2203376054,2193550061,2151982253,1173,-2,9,61869
1349370715,5808,55.0299987792968750,24.1436004638671880,36.6260986328125000,269.2036132812500000,-46.2412986755371100,24.1553306579589840,26.7088603973388670,64,124,93,65,49,13046,2149171090,2150136493,2149644827,2147602989,2196652708,2211884342,2198498038,2152419702,3462,-2,9,13205
1349370869,5809,53.7900009155273440,24.6000995635986330,36.6315002441406250,270.5958862304687500,-60.4066085815429700,24.5963306427001950,26.4849491119384770,64,120,94,66,50,13039,2149443401,2150404900,2149860690,2147623030,2202648932,2218346834,2202496960,2152915885,3498,-1,9,59030
1349371022,5809,51.7599983215332000,24.6842994689941400,36.6124992370605500,270.6318054199219000,-63.5544204711914060,24.6945304870605470,26.4460105895996100,64,129,92,66,50,13037,2149809197,2150789403,2150223149,2147671277,2210735762,2227557760,2209384530,2153825846,40,-1,10,19956
1349371067,5805,49.7200012207031250,25.1182994842529300,36.5597991943359400,267.6574096679687500,-75.4362869262695300,25.0658397674560550,26.4190807342529300,65,125,95,66,53,13031,2150221019,2151258980,2150835529,2147793490,2219129225,2236556086,2216426486,2154884260,971,-2,9,44560
1349371591,5807,47.7700004577636700,25.5361995697021500,36.4527015686035160,250.5558929443359400,-90.7708587646484400,25.5466308593750000,26.9242591857910160,64,126,93,67,51,13028,2149468050,2150286921,2149653275,2147626230,2204620150,2216708068,2199152393,2153014070,3529,-2,9,23
1349371683,5809,45.5099983215332000,25.8855991363525400,36.4317016601562500,249.2245941162109400,-101.1763992309570300,25.8739490509033200,26.8542995452880860,63,121,94,66,47,13036,2150768868,2151739574,2150796672,2147678710,2234518363,2254209124,2228274130,2156430098,2780,-2,9,15880
1349371764,5808,43.9599990844726560,26.2325992584228500,36.4547996520996100,246.4326019287109400,-111.6035995483398400,26.2028408050537100,26.8461494445800780,63,121,94,65,49,13036,2150556845,2151458861,2150509394,2147656704,2228685165,2245564580,2220721600,2155631936,2655,-1,9,14013
1349372048,5810,41.8100013732910160,26.5513000488281250,36.3434982299804700,243.3518981933593800,-122.1936035156250000,26.5378208160400400,26.8493995666503900,64,119,93,66,48,13034,2151786889,2152807524,2151630902,2147761883,2256491108,2277757074,2245226870,2159178496,1976,-1,9,19852
1349372310,5805,39.7299995422363300,26.6751995086669920,36.3459014892578100,241.3361053466797000,-126.5402984619140600,26.6755905151367200,26.8835697174072270,60,125,93,66,50,13037,2150669878,2151409737,2150341659,2147661915,2233870400,2247104329,2220117120,2156276909,2304,-2,9,42722
1349372403,5806,37.9900016784668000,26.8957004547119140,36.4119987487793000,239.2626037597656200,-133.8957977294922000,26.9091205596923830,26.8846702575683600,59,119,93,65,49,13043,2152295862,2153142016,2151813339,2147801152,2266749129,2284948571,2248266944,2160222162,1712,-2,9,26872
1349372567,5807,36.4000015258789060,27.0827999114990230,36.4505996704101560,238.1304931640625000,-139.8890991210937500,27.0997600555419920,26.8614292144775400,57,117,92,65,50,13053,2153593773,2154291072,2152983936,2148215606,2294715913,2312433974,2264185920,2162491474,396,-1,9,33833
1349372612,5805,34.7200012207031250,27.0417003631591800,36.4309005737304700,238.3105926513672000,-137.7714996337890600,27.0323600769042970,26.8792591094970700,55,117,91,65,51,13056,2154054829,2154608521,2153050560,2148214528,2305611053,2321288073,2268503241,2163576420,329,-2,9,17331
1349372657,5804,32.5900001525878900,27.0599002838134770,36.4105987548828100,237.9873962402343800,-139.1623992919922000,27.0766296386718750,26.8765201568603500,55,116,91,65,50,13055,2154622409,2155027812,2153130715,2148128283,2319913252,2334362624,2276006811,2164899913,104,-2,9,15816